Location: West Sayville
(40.7279°N, 73.0976°W)
Time: 10:07:00
(UTC+00:00)

Cosmos 2360 - Pass Details

Date: 29 October 2020
Orbit: 847 x 855 km, 70.8° (Epoch: 23 November)

Event Time Altitude Azimuth Distance (km) Brightness Sun altitude
Rises 22:56:23 0° 187° (S) 3,409 7.5 -12.8°
Reaches altitude 10° 22:58:53 10° 182° (S) 2,477 6.8 -13.3°
Maximum altitude 23:04:23 52° 108° (ESE) 1,058 4.4 -14.3°
Drops below altitude 10° 23:09:54 10° 34° (NNE) 2,490 6.3 -15.3°
Enters shadow 23:10:47 - 32° (NNE) 2,818 6.6 -15.5°
